Location: Wiesbaden
(50.0830°N, 8.2500°E)
Time: 20:54:57
(UTC+02:00)

ISS - Pass Details

Date: 19 July 2019
Orbit: 409 x 418 km, 51.6° (Epoch: 20 July)

Event Time Altitude Azimuth Distance (km) Brightness Sun altitude
Rises 03:52:00 0° 287° (WNW) 2,349 -0.1 -12.7°
Reaches altitude 10° 03:54:13 10° 276° (W) 1,482 -1.2 -12.5°
Maximum altitude 03:57:12 31° 213° (SSW) 748 -3.1 -12.2°
Drops below altitude 10° 04:00:10 10° 149° (SSE) 1,471 -1.2 -11.9°
Sets 04:02:22 0° 138° (SE) 2,328 -0.1 -11.7°
